EW1458 Weather Reports


Display with metric or nautical units.
time (UTC)temp
F
wind
direction
speed
MPH
gust
MPH
rain 1hr
in
rain 24hr
in
rain mn
in
humidity
%
barometer
mb
20260902065017 49 41 2.0 3.0 0.00 0.00 0.00 98 1020.7
20260902064938 49 33 2.0 3.0 0.00 0.00 0.00 98 1020.8
20260902064012 49 12 0.0 1.0 0.00 0.00 0.00 98 1020.9
20260902063930 49 359 0.0 1.0 0.00 0.00 0.00 98 1020.8
20260902063013 49 329 0.0 2.0 0.00 0.00 0.00 98 1021.0
20260902062509 49 25 1.0 2.0 0.00 0.00 0.00 98 1020.8
20260902062011 48 18 0.0 1.0 0.00 0.00 0.00 97 1021.0
20260902061508 49 341 0.0 1.0 0.00 0.00 0.00 97 1020.8
20260902061008 49 12 0.0 1.0 0.00 0.00 0.00 97 1020.9
20260902060503 49 308 0.0 1.0 0.00 0.00 0.00 97 1020.9
20260902055959 49 308 0.0 1.0 0.00 0.00 0.00 97 1020.9
20260902055526 49 0 0.0 2.0 0.00 0.00 0.00 97 1020.6
20260902055458 49 279 0.0 1.0 0.00 0.00 0.00 97 1020.7
20260902054456 49 306 0.0 2.0 0.00 0.00 0.00 97 1020.7
20260902053958 49 345 0.0 1.0 0.00 0.00 0.00 97 1020.8
20260902053450 50 290 0.0 1.0 0.00 0.00 0.00 97 1020.7
20260902052925 50 0 0.0 1.0 0.00 0.00 0.00 97 1020.5
20260902052425 50 110 0.0 2.0 0.00 0.00 0.00 97 1020.4
20260902051918 50 30 0.0 2.0 0.00 0.00 0.00 97 1020.5
20260902051838 51 48 1.0 2.0 0.00 0.00 0.00 97 1020.3
20260902050916 51 34 0.0 2.0 0.00 0.00 0.00 97 1020.4
20260902050415 51 311 0.0 2.0 0.00 0.00 0.00 97 1020.5
20260902045915 51 339 0.0 1.0 0.00 0.00 0.00 97 1020.6
20260902045415 51 117 0.0 2.0 0.00 0.00 0.00 97 1020.3
20260902044910 51 335 0.0 2.0 0.00 0.00 0.00 97 1020.3
20260902044411 51 249 1.0 2.0 0.00 0.00 0.00 97 1020.4
20260902043908 52 25 0.0 4.0 0.00 0.00 0.00 97 1020.2
20260902043408 53 60 1.0 4.0 0.00 0.00 0.00 98 1020.2
20260902042907 53 25 2.0 3.0 0.00 0.00 0.00 98 1020.2
20260902042401 53 36 2.0 3.0 0.00 0.00 0.00 98 1020.2
20260902041901 52 40 2.0 3.0 0.00 0.00 0.00 98 1020.2
20260902041357 52 39 1.0 2.0 0.00 0.00 0.00 97 1020.4
20260902040855 52 9 0.0 3.0 0.00 0.00 0.00 97 1020.1
20260902040355 53 20 2.0 3.0 0.00 0.00 0.00 97 1020.1
20260902035855 52 36 0.0 2.0 0.00 0.00 0.00 97 1020.1
20260902035818 52 18 1.0 2.0 0.00 0.00 0.00 97 1020.2
20260902034847 52 341 0.0 2.0 0.00 0.00 0.00 97 1020.0
20260902034347 52 7 0.0 2.0 0.00 0.00 0.00 97 1020.2
20260902033849 52 28 0.0 2.0 0.00 0.00 0.00 97 1020.0
20260902033347 52 7 0.0 2.0 0.00 0.00 0.00 96 1020.1
20260902032839 52 290 0.0 2.0 0.00 0.00 0.00 96 1019.9
20260902032331 52 13 1.0 1.0 0.00 0.00 0.00 96 1020.2
20260902031831 53 37 0.0 1.0 0.00 0.00 0.00 96 1020.2
20260902031505 53 15 1.0 2.0 0.00 0.00 0.00 96 1020.1
20260902030329 53 38 0.0 2.0 0.00 0.00 0.00 96 1020.2
20260902025826 53 37 0.0 2.0 0.00 0.00 0.00 96 1020.1
20260902025324 53 110 0.0 2.0 0.00 0.00 0.00 96 1020.1
20260902024818 53 37 1.0 2.0 0.00 0.00 0.00 96 1020.0
20260902024320 53 12 0.0 2.0 0.00 0.00 0.00 95 1020.2
20260902024252 53 37 0.0 2.0 0.00 0.00 0.00 95 1020.1
20260902023311 53 332 1.0 2.0 0.00 0.00 0.00 95 1020.0
20260902023214 53 332 2.0 2.0 0.00 0.00 0.00 95 1020.1
20260902022314 54 315 1.0 2.0 0.00 0.00 0.00 95 1019.9
20260902021809 55 30 0.0 2.0 0.00 0.00 0.00 96 1019.9
20260902021711 55 20 2.0 2.0 0.00 0.00 0.00 96 1020.0
20260902021235 55 13 0.0 2.0 0.00 0.00 0.00 95 1020.0
20260902020303 55 24 1.0 2.0 0.00 0.00 0.00 95 1019.9
20260902015804 55 32 1.0 1.0 0.00 0.00 0.00 94 1019.8
20260902015302 56 30 0.0 3.0 0.00 0.00 0.00 95 1019.9
20260902014800 56 12 0.0 3.0 0.00 0.00 0.00 95 1019.9
20260902014245 56 5 2.0 2.0 0.00 0.00 0.00 95 1019.8
20260902013734 56 358 2.0 2.0 0.00 0.00 0.00 94 1020.0
20260902013233 56 17 0.0 2.0 0.00 0.00 0.00 94 1019.9
20260902012743 56 110 0.0 2.0 0.00 0.00 0.00 93 1019.8
20260902012226 56 37 0.0 3.0 0.00 0.00 0.00 93 1019.7
20260902011721 57 22 1.0 3.0 0.00 0.00 0.00 93 1019.9
20260902011219 57 31 2.0 2.0 0.00 0.00 0.00 92 1019.8
20260902010717 57 37 0.0 2.0 0.00 0.00 0.00 92 1019.7
20260902010215 58 29 1.0 2.0 0.00 0.00 0.00 91 1019.7
20260902005712 58 30 1.0 2.0 0.00 0.00 0.00 91 1019.5
20260902005210 58 3 1.0 2.0 0.00 0.00 0.00 91 1019.5
20260902004709 58 30 2.0 2.0 0.00 0.00 0.00 90 1019.5
20260902004636 58 30 2.0 2.0 0.00 0.00 0.00 90 1019.3
20260902003707 59 19 1.0 3.0 0.00 0.00 0.00 89 1019.3
20260902003351 59 37 2.0 2.0 0.00 0.00 0.00 89 1019.2
20260902002619 60 49 1.0 2.0 0.00 0.00 0.00 87 1019.1
20260902002126 60 31 2.0 3.0 0.00 0.00 0.00 87 1019.3
20260902001133 60 13 1.0 3.0 0.00 0.00 0.00 86 1019.0
20260902000633 60 21 1.0 5.0 0.00 0.00 0.00 86 1019.0
20260902000131 60 34 2.0 5.0 0.00 0.00 0.00 85 1019.1
20260901235629 60 40 4.0 5.0 0.00 0.00 0.00 85 1018.9
20260901235126 60 11 1.0 2.0 0.00 0.00 0.00 85 1018.9
20260901234624 61 348 0.0 2.0 0.00 0.00 0.00 84 1018.8
20260901234119 61 19 0.0 2.0 0.00 0.00 0.00 83 1018.7
20260901233610 62 33 0.0 2.0 0.00 0.00 0.00 82 1018.7
20260901233104 62 23 2.0 2.0 0.00 0.00 0.00 81 1018.6
20260901232603 62 11 1.0 2.0 0.00 0.00 0.00 80 1018.4
20260901232101 63 332 1.0 2.0 0.00 0.00 0.00 79 1018.3
20260901231601 63 15 1.0 2.0 0.00 0.00 0.00 78 1018.5
20260901231259 63 32 0.0 2.0 0.00 0.00 0.00 78 1018.5
20260901230242 64 25 0.0 3.0 0.00 0.00 0.00 76 1018.2
20260901225454 65 326 0.0 4.0 0.00 0.00 0.00 73 1018.2
20260901224548 65 33 0.0 5.0 0.00 0.00 0.00 72 1018.2
20260901224049 66 36 4.0 5.0 0.00 0.00 0.00 72 1018.4
20260901223548 66 46 2.0 4.0 0.00 0.00 0.00 71 1018.3
20260901223036 66 38 1.0 4.0 0.00 0.00 0.00 70 1018.2
20260901222535 66 37 4.0 5.0 0.00 0.00 0.00 70 1018.2
20260901222036 67 42 1.0 6.0 0.00 0.00 0.00 69 1018.2
20260901221531 67 27 3.0 9.0 0.00 0.00 0.00 68 1018.1
20260901221030 67 52 2.0 9.0 0.00 0.00 0.00 67 1018.0
20260901220527 67 44 5.0 9.0 0.00 0.00 0.00 67 1017.9
20260901220030 68 47 5.0 8.0 0.00 0.00 0.00 65 1018.0
20260901215522 68 8 2.0 7.0 0.00 0.00 0.00 64 1017.8
20260901215017 69 9 4.0 6.0 0.00 0.00 0.00 63 1018.0
20260901214516 69 31 5.0 6.0 0.00 0.00 0.00 61 1018.0
20260901214442 69 36 3.0 6.0 0.00 0.00 0.00 61 1017.9
20260901213506 69 324 1.0 8.0 0.00 0.00 0.00 62 1017.8
20260901213001 69 43 6.0 8.0 0.00 0.00 0.00 61 1017.9
20260901212456 70 36 6.0 8.0 0.00 0.00 0.00 60 1018.0
20260901211957 70 152 0.0 7.0 0.00 0.00 0.00 61 1017.8
20260901211448 70 25 5.0 6.0 0.00 0.00 0.00 60 1017.9
20260901210945 70 56 3.0 6.0 0.00 0.00 0.00 59 1017.6
20260901210445 71 30 2.0 8.0 0.00 0.00 0.00 58 1017.7
20260901205946 71 72 3.0 9.0 0.00 0.00 0.00 57 1017.7
20260901205439 71 39 5.0 9.0 0.00 0.00 0.00 55 1017.6
20260901204932 71 314 2.0 10.0 0.00 0.00 0.00 56 1017.5
20260901204516 71 17 5.0 10.0 0.00 0.00 0.00 56 1017.6
20260901204033 71 36 3.0 9.0 0.00 0.00 0.00 54 1017.5
20260901202416 72 54 8.0 12.0 0.00 0.00 0.00 51 1017.5
20260901202336 74 7 2.0 11.0 0.00 0.00 0.00 48 1017.5
20260901201409 74 267 2.0 8.0 0.00 0.00 0.00 48 1017.3
20260901200904 74 345 2.0 8.0 0.00 0.00 0.00 47 1017.5
20260901200405 75 291 4.0 8.0 0.00 0.00 0.00 45 1017.4
20260901200350 74 356 2.0 8.0 0.00 0.00 0.00 46 1017.5
20260901195422 75 253 2.0 7.0 0.00 0.00 0.00 44 1017.3
20260901195359 75 19 2.0 6.0 0.00 0.00 0.00 43 1017.5
20260901194354 75 274 2.0 7.0 0.00 0.00 0.00 45 1017.3
20260901193853 75 305 4.0 8.0 0.00 0.00 0.00 43 1017.1
20260901193346 75 299 8.0 8.0 0.00 0.00 0.00 42 1017.2
20260901192841 75 309 5.0 7.0 0.00 0.00 0.00 40 1017.2
20260901192338 75 269 2.0 7.0 0.00 0.00 0.00 40 1017.3
20260901192316 75 320 4.0 6.0 0.00 0.00 0.00 40 1017.1
20260901191813 75 281 2.0 7.0 0.00 0.00 0.00 42 1017.4
20260901191802 74 281 2.0 10.0 0.00 0.00 0.00 41 1017.0
20260901190754 75 297 7.0 10.0 0.00 0.00 0.00 40 1017.3
20260901185825 75 300 8.0 9.0 0.00 0.00 0.00 41 1017.2
20260901185323 75 309 5.0 8.0 0.00 0.00 0.00 40 1017.4
20260901185308 75 305 4.0 8.0 0.00 0.00 0.00 41 1017.3
20260901184317 76 317 0.0 7.0 0.00 0.00 0.00 42 1017.1
20260901183817 76 299 3.0 7.0 0.00 0.00 0.00 43 1017.3
20260901183316 76 307 4.0 7.0 0.00 0.00 0.00 38 1017.1
20260901182811 75 33 2.0 7.0 0.00 0.00 0.00 42 1017.2
20260901182305 76 59 5.0 6.0 0.00 0.00 0.00 41 1017.1
20260901181759 76 296 2.0 7.0 0.00 0.00 0.00 38 1017.2
20260901181749 75 69 1.0 7.0 0.00 0.00 0.00 41 1017.1
20260901180753 75 306 3.0 8.0 0.00 0.00 0.00 40 1017.2
20260901180252 75 267 2.0 10.0 0.00 0.00 0.00 41 1017.3
20260901175748 75 299 4.0 10.0 0.00 0.00 0.00 42 1017.3
20260901175248 76 271 3.0 8.0 0.00 0.00 0.00 43 1017.0
20260901174745 76 55 3.0 9.0 0.00 0.00 0.00 40 1017.2
20260901174247 76 55 6.0 9.0 0.00 0.00 0.00 40 1016.9
20260901173755 76 53 2.0 6.0 0.00 0.00 0.00 44 1017.2
20260901173708 76 284 5.0 6.0 0.00 0.00 0.00 42 1017.0
20260901172735 76 325 2.0 6.0 0.00 0.00 0.00 43 1017.3
20260901172237 76 294 2.0 6.0 0.00 0.00 0.00 43 1017.1
20260901171737 77 41 2.0 7.0 0.00 0.00 0.00 41 1017.2
20260901171233 76 41 2.0 8.0 0.00 0.00 0.00 43 1017.1
20260901170726 76 280 2.0 8.0 0.00 0.00 0.00 43 1017.0
20260901170224 75 297 1.0 6.0 0.00 0.00 0.00 43 1017.2
20260901165718 76 307 3.0 6.0 0.00 0.00 0.00 47 1017.2
20260901165216 75 41 4.0 9.0 0.00 0.00 0.00 45 1017.2
20260901164708 74 308 3.0 9.0 0.00 0.00 0.00 46 1017.5
20260901164211 75 293 4.0 7.0 0.00 0.00 0.00 44 1017.4
20260901163710 75 306 5.0 6.0 0.00 0.00 0.00 44 1017.4
20260901163208 75 307 4.0 6.0 0.00 0.00 0.00 43 1017.5
20260901162659 75 35 2.0 8.0 0.00 0.00 0.00 43 1017.6
20260901162153 74 300 4.0 8.0 0.00 0.00 0.00 44 1017.3
20260901161654 74 298 3.0 7.0 0.00 0.00 0.00 45 1017.4
20260901161147 75 274 2.0 10.0 0.00 0.00 0.00 45 1017.4
20260901160641 74 301 2.0 10.0 0.00 0.00 0.00 47 1017.5
20260901160153 75 289 4.0 6.0 0.00 0.00 0.00 43 1017.5
20260901155639 75 315 4.0 6.0 0.00 0.00 0.00 42 1017.4
20260901155133 75 66 4.0 6.0 0.00 0.00 0.00 43 1017.4
20260901154622 74 70 1.0 6.0 0.00 0.00 0.00 44 1017.5
20260901154122 74 271 2.0 7.0 0.00 0.00 0.00 46 1017.5
20260901153648 74 71 0.0 9.0 0.00 0.00 0.00 46 1017.3
20260901153623 74 309 4.0 9.0 0.00 0.00 0.00 45 1017.6
20260901152610 74 66 2.0 7.0 0.00 0.00 0.00 50 1017.5
20260901152507 74 313 4.0 6.0 0.00 0.00 0.00 50 1017.5
20260901151609 73 232 2.0 6.0 0.00 0.00 0.00 53 1017.5
20260901151107 73 307 2.0 7.0 0.00 0.00 0.00 54 1017.5
20260901150607 74 300 3.0 7.0 0.00 0.00 0.00 50 1017.5
20260901150106 75 41 2.0 6.0 0.00 0.00 0.00 51 1017.3
20260901150043 75 0 2.0 6.0 0.00 0.00 0.00 51 1017.5
20260901145057 74 25 2.0 5.0 0.00 0.00 0.00 54 1017.4
20260901144559 74 72 1.0 5.0 0.00 0.00 0.00 58 1017.3
20260901144049 74 74 2.0 5.0 0.00 0.00 0.00 56 1017.6
20260901143548 74 284 1.0 6.0 0.00 0.00 0.00 57 1017.4
20260901143052 73 108 2.0 6.0 0.00 0.00 0.00 55 1017.4
20260901143005 73 141 2.0 4.0 0.00 0.00 0.00 56 1017.4
20260901142104 73 56 1.0 4.0 0.00 0.00 0.00 62 1017.4
20260901142040 72 76 1.0 4.0 0.00 0.00 0.00 60 1017.4
20260901141042 72 100 2.0 6.0 0.00 0.00 0.00 60 1017.4
20260901140541 71 82 1.0 6.0 0.00 0.00 0.00 59 1017.4
20260901140231 71 72 3.0 5.0 0.00 0.00 0.00 60 1017.2
20260901135430 71 25 2.0 7.0 0.00 0.00 0.00 62 1017.2
20260901134956 71 67 2.0 7.0 0.00 0.00 0.00 63 1017.3
20260901134014 70 45 2.0 6.0 0.00 0.00 0.00 64 1017.4
20260901133510 69 84 2.0 5.0 0.00 0.00 0.00 65 1017.4
20260901133010 69 83 3.0 5.0 0.00 0.00 0.00 66 1017.3
20260901132505 69 66 2.0 5.0 0.00 0.00 0.00 68 1017.3
20260901132003 69 82 2.0 5.0 0.00 0.00 0.00 67 1017.4
20260901131511 68 59 1.0 5.0 0.00 0.00 0.00 69 1017.4
20260901131336 68 50 1.0 5.0 0.00 0.00 0.00 70 1017.3
20260901130501 68 5 1.0 5.0 0.00 0.00 0.00 70 1017.3
20260901125946 68 94 2.0 5.0 0.00 0.00 0.00 69 1017.3
20260901125440 67 277 0.0 4.0 0.00 0.00 0.00 72 1017.5
20260901124931 67 19 0.0 4.0 0.00 0.00 0.00 73 1017.4
20260901124426 66 92 2.0 4.0 0.00 0.00 0.00 73 1017.3
20260901123925 66 51 2.0 3.0 0.00 0.00 0.00 73 1017.3
20260901123900 66 282 0.0 2.0 0.00 0.00 0.00 73 1017.5
20260901122921 65 205 0.0 2.0 0.00 0.00 0.00 74 1017.5
20260901122759 65 119 0.0 2.0 0.00 0.00 0.00 77 1017.1
20260901122314 64 272 1.0 3.0 0.00 0.00 0.00 76 1017.3
20260901121814 63 66 2.0 3.0 0.00 0.00 0.00 81 1017.2
20260901120907 62 19 0.0 4.0 0.00 0.00 0.00 81 1017.3
20260901120404 63 126 2.0 4.0 0.00 0.00 0.00 81 1017.5
20260901115904 62 350 0.0 2.0 0.00 0.00 0.00 81 1017.4
20260901115359 60 213 2.0 2.0 0.00 0.00 0.00 85 1017.5
20260901114856 59 104 1.0 2.0 0.00 0.00 0.00 89 1017.3
20260901114354 58 311 1.0 4.0 0.00 0.00 0.00 90 1017.3
20260901114245 58 283 0.0 4.0 0.00 0.00 0.00 89 1017.6
20260901113354 58 307 2.0 4.0 0.00 0.00 0.00 90 1017.5
20260901112852 57 295 1.0 4.0 0.00 0.00 0.00 91 1017.3
20260901112758 57 338 2.0 2.0 0.00 0.00 0.00 95 1017.4
20260901111848 56 217 0.0 3.0 0.00 0.00 0.00 97 1017.4
20260901111344 56 229 1.0 3.0 0.00 0.00 0.00 98 1017.4
20260901110846 55 93 2.0 2.0 0.00 0.00 0.00 98 1017.1
20260901110345 55 193 0.0 2.0 0.00 0.00 0.00 98 1017.2
20260901105844 54 96 1.0 2.0 0.00 0.00 0.00 99 1017.0
20260901105344 54 129 0.0 3.0 0.00 0.00 0.00 99 1017.2
20260901104844 53 308 2.0 3.0 0.00 0.00 0.00 99 1017.3
20260901104344 54 313 2.0 2.0 0.00 0.00 0.00 99 1016.9
20260901103842 53 317 0.0 2.0 0.00 0.00 0.00 99 1017.0
20260901103335 53 333 0.0 2.0 0.00 0.00 0.00 99 1016.9
20260901102958 52 298 0.0 2.0 0.00 0.00 0.00 99 1016.8
20260901101829 51 47 0.0 2.0 0.00 0.00 0.00 99 1016.9
20260901101328 51 28 1.0 2.0 0.00 0.00 0.00 99 1016.8
20260901100831 51 85 1.0 2.0 0.00 0.00 0.00 99 1016.9
20260901100341 51 72 0.0 2.0 0.00 0.00 0.00 99 1016.8
20260901100228 51 110 1.0 2.0 0.00 0.00 0.00 99 1016.8
20260901095325 51 99 0.0 2.0 0.00 0.00 0.00 99 1016.9
20260901094822 51 30 0.0 2.0 0.00 0.00 0.00 98 1016.8
20260901094321 52 25 0.0 2.0 0.00 0.00 0.00 99 1016.8
20260901093822 52 324 1.0 2.0 0.00 0.00 0.00 99 1016.6
20260901093332 52 315 2.0 2.0 0.00 0.00 0.00 99 1016.6
20260901092819 52 330 1.0 1.0 0.00 0.00 0.00 99 1016.6
20260901092317 52 304 0.0 2.0 0.00 0.00 0.00 99 1016.5
20260901091818 52 290 0.0 2.0 0.00 0.00 0.00 99 1016.5
20260901091316 52 290 0.0 1.0 0.00 0.00 0.00 99 1016.7
20260901090814 52 25 0.0 1.0 0.00 0.00 0.00 99 1016.6
20260901090311 52 199 0.0 1.0 0.00 0.00 0.00 99 1016.7
20260901085811 53 110 0.0 2.0 0.00 0.00 0.00 99 1016.3
20260901085310 53 249 0.0 2.0 0.00 0.00 0.00 99 1016.5
20260901084811 53 264 0.0 2.0 0.00 0.00 0.00 99 1016.6
20260901084311 53 290 2.0 2.0 0.00 0.00 0.00 99 1016.6
20260901083808 52 346 0.0 2.0 0.00 0.00 0.00 99 1016.6
20260901083309 52 284 0.0 2.0 0.00 0.00 0.00 99 1016.6
20260901083218 52 243 1.0 2.0 0.00 0.00 0.00 99 1016.4
20260901082306 52 178 0.0 2.0 0.00 0.00 0.00 99 1016.6
20260901081805 52 205 0.0 1.0 0.00 0.00 0.00 99 1016.5
20260901081304 52 217 0.0 2.0 0.00 0.00 0.00 99 1016.4
20260901081149 52 193 0.0 2.0 0.00 0.00 0.00 99 1016.3
20260901080303 52 90 0.0 2.0 0.00 0.00 0.00 99 1016.5
20260901075802 51 25 0.0 2.0 0.00 0.00 0.00 99 1016.4
20260901075644 51 64 0.0 0.0 0.00 0.00 0.00 99 1016.4
20260901075151 51 92 0.0 1.0 0.00 0.00 0.00 99 1016.3
20260901074259 51 94 0.0 1.0 0.00 0.00 0.00 99 1016.3
20260901073757 51 341 0.0 1.0 0.00 0.00 0.00 99 1016.5
20260901073258 51 132 0.0 1.0 0.00 0.00 0.00 98 1016.2
20260901072755 51 4 0.0 1.0 0.00 0.00 0.00 98 1016.2
20260901072252 51 15 0.0 1.0 0.00 0.00 0.00 98 1016.3
20260901071751 51 37 0.0 2.0 0.00 0.00 0.00 98 1016.2
20260901071252 51 12 0.0 2.0 0.00 0.00 0.00 98 1016.3
20260901070751 51 328 1.0 2.0 0.00 0.00 0.00 98 1016.4
20260901070631 51 352 0.0 2.0 0.00 0.00 0.00 98 1016.4
20260901065748 51 331 1.0 2.0 0.00 0.00 0.00 98 1016.3
20260901065247 52 7 0.0 2.0 0.00 0.00 0.00 98 1016.4